Weather History for Lake Charles, LA

Change the Weather History Date:

Saturday, February 23, 2013

  Actual Average Record
Temperature  
Mean Temperature 58 °F -  
Max Temperature 66 °F 64 °F 80 °F (2011)
Min Temperature 50 °F 50 °F 37 °F (2009)
Degree Days  
Heating Degree Days 7    
Growing Degree Days 8 (Base 50)    
Moisture  
Dew Point 46 °F    
Average Humidity 73    
Maximum Humidity 83    
Minimum Humidity 46    
Precipitation  
Precipitation 0.00 in - - ()
Sea Level Pressure  
Sea Level Pressure 29.95 in    
Wind  
Wind Speed 7 mph (NNE)    
Max Wind Speed 12 mph    
Max Gust Speed -    
Visibility 10 miles    
Events      
Averages and records for this station are not official NWS values.
T = Trace of Precipitation, MM = Missing Value Source: NWS Daily Summary

Daily Weather History Graph

Daily Weather History Graph

Search for Another Location

Airport:

Trip Planner

Search our weather history database for the weather conditions in past years. The results will help you decide how hot, cold, wet, or windy it might be!

Date:

Astronomy

Feb. 23, 2013 Rise Set
Actual Time 6:44 AM CST 6:07 PM CST
Civil Twilight 6:20 AM CST 6:31 PM CST
Nautical Twilight 5:52 AM CST 6:59 PM CST
Astronomical Twilight 5:24 AM CST 7:27 PM CST
Moon 4:22 PM CST (2/23) 5:01 AM CST (2/23)
Length of Visible Light 12h 11m
Length of Day
11h 22m
Waxing Gibbous, 95% of the Moon is Illuminated
Feb 23
Waxing Gibbous
Feb 25
Full
Mar 4
Last Quarter
Mar 11
New
Mar 19
First Quarter

Hourly Weather History & Observations

Time (CST) Temp. Dew Point Humidity Pressure Visibility Wind Dir Wind Speed Gust Speed Precip Events Conditions
12:15 AM 56.3 °F 48.7 °F 76% 29.96 in 10.0 mi North 6.9 mph - N/A   Overcast
12:35 AM 56.3 °F 49.1 °F 77% 29.97 in 10.0 mi North 6.9 mph - N/A   Overcast
12:55 AM 55.4 °F 48.7 °F 78% 29.98 in 10.0 mi NNW 9.2 mph - N/A   Overcast
1:15 AM 54.9 °F 48.0 °F 78% 29.97 in 10.0 mi North 8.1 mph - N/A   Overcast
1:35 AM 54.7 °F 47.5 °F 77% 29.97 in 10.0 mi North 9.2 mph - N/A   Overcast
1:55 AM 54.5 °F 47.1 °F 76% 29.96 in 10.0 mi North 5.8 mph - N/A   Overcast
2:15 AM 54.1 °F 46.8 °F 76% 29.96 in 10.0 mi NNE 8.1 mph - N/A   Overcast
2:35 AM 54.1 °F 46.6 °F 76% 29.95 in 10.0 mi NNE 8.1 mph - N/A   Overcast
2:55 AM 54.0 °F 46.4 °F 76% 29.94 in 10.0 mi NNE 10.4 mph - N/A   Overcast
3:15 AM 52.9 °F 46.0 °F 78% 29.92 in 10.0 mi NNE 11.5 mph - N/A   Mostly Cloudy
3:35 AM 52.7 °F 45.9 °F 78% 29.92 in 10.0 mi NNE 8.1 mph - N/A   Clear
3:55 AM 52.0 °F 45.9 °F 80% 29.92 in 10.0 mi NNE 6.9 mph - N/A   Clear
4:15 AM 51.8 °F 45.9 °F 80% 29.91 in 10.0 mi NNE 8.1 mph - N/A   Clear
4:35 AM 51.3 °F 45.7 °F 81% 29.92 in 10.0 mi NNE 10.4 mph - N/A   Clear
4:55 AM 50.9 °F 45.5 °F 82% 29.92 in 10.0 mi NNE 6.9 mph - N/A   Clear
5:15 AM 50.4 °F 45.5 °F 83% 29.94 in 10.0 mi North 5.8 mph - N/A   Clear
5:35 AM 50.4 °F 45.5 °F 83% 29.95 in 10.0 mi NNE 3.5 mph - N/A   Clear
5:55 AM 50.2 °F 45.1 °F 83% 29.96 in 10.0 mi NNE 6.9 mph - N/A   Clear
6:00 AM 50.0 °F 44.6 °F 82% 29.96 in 10.0 mi NNE 8.1 mph - N/A   Clear
6:50 AM 50.0 °F 44.6 °F 82% 29.99 in 10.0 mi North 6.9 mph - N/A   Clear
7:51 AM 50.0 °F 44.6 °F 82% 29.99 in 10.0 mi NNE 6.9 mph - N/A   Clear
8:52 AM 51.8 °F 44.6 °F 76% 29.99 in 10.0 mi North 9.2 mph - N/A   Clear
9:50 AM 55.4 °F 46.4 °F 72% 29.96 in 10.0 mi NNE 9.2 mph - N/A   Clear
10:55 AM 57.2 °F 46.4 °F 67% 29.96 in 10.0 mi NE 9.2 mph - N/A   Clear
11:55 AM 60.8 °F 46.4 °F 59% 29.96 in 10.0 mi NNE 8.1 mph - N/A   Clear
12:50 PM 62.6 °F 46.4 °F 55% 29.94 in 10.0 mi NE 5.8 mph - N/A   Clear
1:50 PM 64.4 °F 44.6 °F 49% 29.94 in 10.0 mi NE 5.8 mph - N/A   Clear
2:48 PM 66.2 °F 46.4 °F 49% 29.92 in 10.0 mi Calm Calm - N/A   Clear
3:50 PM 66.2 °F 44.6 °F 46% 29.89 in 10.0 mi Calm Calm - N/A   Clear
4:50 PM 66.2 °F 46.4 °F 49% 29.90 in 10.0 mi Calm Calm - N/A   Clear
5:50 PM 64.4 °F 46.4 °F 52% 29.92 in 10.0 mi Calm Calm - N/A   Clear
6:58 PM 60.8 °F 48.2 °F 63% 29.93 in 10.0 mi Calm Calm - N/A   Clear
7:58 PM 57.2 °F 48.2 °F 72% 29.94 in 10.0 mi Calm Calm - N/A   Clear
8:50 PM 57.2 °F 48.2 °F 72% 29.95 in 10.0 mi Calm Calm - N/A   Clear
9:45 PM 55.4 °F 48.2 °F 77% 29.96 in 10.0 mi Calm Calm - N/A   Clear
10:35 PM 54.7 °F 47.8 °F 78% 29.97 in 10.0 mi NE 4.6 mph - N/A   Clear
10:55 PM 54.7 °F 47.7 °F 77% 29.97 in 10.0 mi ENE 5.8 mph - N/A   Clear
11:15 PM 54.5 °F 46.4 °F 74% 29.97 in 10.0 mi NE 8.1 mph - N/A   Clear
11:35 PM 54.0 °F 45.9 °F 74% 29.98 in 10.0 mi NE 5.8 mph - N/A   Clear
11:55 PM 53.2 °F 45.7 °F 76% 29.98 in 10.0 mi ENE 3.5 mph - N/A   Clear